Regional Weather Roundup
Issued by NWS Cleveland, OH

Home | Current Version | Previous Version | Graphics & Text | Print | Product List | Glossary On
Versions: 1 2 3 4 5 6 7 8 9 10 11 12 13 14 15 16 17 18 19 20 21 22 23 24 25 26 27 28 29 30 31 32 33 34 35 36 37 38 39 40 41 42 43 44 45 46 47 48 49 50
000
ASUS41 KCLE 301410
RWRCLE
OHIO REGIONAL WEATHER ROUNDUP
NATIONAL WEATHER SERVICE CLEVELAND, OH
1000 AM EDT MON MAR 30 2015

NOTE: "FAIR" INDICATES FEW OR NO CLOUDS BELOW 12,000 FEET WITH NO
SIGNIFICANT WEATHER AND/OR OBSTRUCTIONS TO VISIBILITY.

OHZ001>008-015>018-024>027-034-035-043-044-301500-
   NORTHWEST OHIO

CITY           SKY/WX    TMP DP  RH WIND       PRES   REMARKS
DEFIANCE       SUNNY     44  30  57 W8G16     30.00R
FINDLAY        SUNNY     44  30  57 W15       29.99R
TOLEDO EXPRESS SUNNY     42  29  59 W14       29.96R
TOLEDO EXEC    SUNNY     45  28  51 W17G23    29.97R
LIMA           SUNNY     44  31  60 W17       30.01R
$$

OHZ009>014-019>023-028>033-038-089-301500-
   NORTHEAST OHIO

CITY           SKY/WX    TMP DP  RH WIND       PRES   REMARKS
CLE-HOPKINS    PTSUNNY   41  31  67 W16       29.97R
CLE-LAKEFRONT  PTSUNNY   39  31  72 W17       29.93R
CUY CO. ARPT   NOT AVBL
LORAIN-ELYRIA  MOSUNNY   41  32  70 NW17G29   29.95R
ASHTABULA      CLOUDY    39  30  70 W16       29.88R
AKRON-CANTON   PTSUNNY   43  33  68 NW15      29.93R
WOOSTER        PTSUNNY   40  31  70 W17       29.96R
MANSFIELD      MOSUNNY   41  31  67 W14G22    29.97R
YOUNGSTOWN     CLOUDY    41  31  67 W15       29.89R
$$

OHZ042-051>053-060>062-070>072-077>081-301500-
  SOUTHWEST OHIO

CITY           SKY/WX    TMP DP  RH WIND       PRES   REMARKS
CINC-COVINGTON SUNNY     48  37  65 W10       30.09R
CINC-LUNKEN    SUNNY     48  37  65 W9        30.10R
HAMILTON       SUNNY     48  36  63 W7        30.10R
DAYTON         MOSUNNY   46  36  68 W13       30.06R
WRIGHT-PAT AFB SUNNY     45  35  67 W10       30.05R
DAYTON GENERAL SUNNY     45  35  68 W9        30.06R
WILMINGTON     SUNNY     44  33  65 W12       30.07R
$$

OHZ036-037-039>041-045>050-054>059-063>069-073>076-082>088-301500-
  CENTRAL AND SOUTHEAST OHIO

CITY           SKY/WX    TMP DP  RH WIND       PRES   REMARKS
COLUMBUS       SUNNY     44  33  65 W18       30.03R
OSU AIRPORT    MOSUNNY   44  32  62 W15G22    30.03R
BOLTON FIELD   SUNNY     45  34  65 W10       30.04R
RICKENBACK AFB SUNNY     44  33  65 W13G20    30.04R
NEWARK         MOSUNNY   45  32  60 W14G21    30.01R
MARION         SUNNY     43  31  62 NW17G25   30.01R
LANCASTER      SUNNY     45  32  60 W14       30.04R
ZANESVILLE     SUNNY     44  31  60 W14       30.00R
NEW PHILLY     MOSUNNY   46  32  58 W10G22    29.98R
$$



USA.gov is the U.S. government's official web portal to all federal, state and local government web resources and services.